Content
SEND FEEDBACK

Daily
Averages
Monthly
Summary
United States of America

PERRYTON EAST, TEXAS


Home > North America > United States > Texas
Elevation: 2900 feet     Latitude: 36 06N     Longitude: 100 36W

WEATHER
 
SELECT A DAY
Number of Records: 261,406;   Date Range: 7/16/03 - 7/22/14
 
SHARE

PRINT THIS DATA

[ ← Previous Day ]
WEATHER ALMANAC - JANUARY 31, 2013
[ Next Day → ]
[ °C ]   °F
Weather ElementAverageHighLow
Temperature35.9 °F55.4 °F (12:15 pm)19.4 °F (7:35 am)
Dewpoint20.8 °F26.6 °F (9:35 am)15.8 °F (12:35 am)
Humidity59.3 %86 % (5:55 am)23 % (12:35 pm)
Barometer30.12 in30.33 in (11:55 pm)29.98 in (5:15 am)
Wind Speed6.9 mph17.3 mph (12:15 pm)
Wind Gust23 mph (2:35 pm)
Weather ElementAverage
Visibility10 mi
Wind DirectionESE (99.6 °)

Weather ElementTotal
Precipitation---
Heating Degree Days27.6 (Base 65)
Averaged from 71 records on January 31, 2013
WEATHER CONDITIONS BREAKOUT
WIND DIRECTION BREAKOUT
WEATHER BY HOUR - JANUARY 31, 2013
[ °C ]   °F
Local TimeTemperatureDewpointHumidityBarometerVisibilityWind DirectionWind SpeedGust SpeedPrecipitationEventsConditions
12:35 AM24.8 °F15.8 °F69 %30.01 in10.0 miSW (230°)3.5 mphClear
12:55 AM26.6 °F17.6 °F69 %30.01 in10.0 miNNW (340°)3.5 mphClear
1:15 AM26.6 °F17.6 °F69 %30.01 in10.0 miCalmClear
1:35 AM23.0 °F15.8 °F74 %30.00 in10.0 miCalmClear
1:55 AM26.6 °F17.6 °F69 %30.00 in10.0 miCalmClear
2:15 AM24.8 °F17.6 °F74 %30.00 in10.0 miCalmClear
2:35 AM26.6 °F17.6 °F69 %30.01 in10.0 miCalmClear
2:55 AM26.6 °F17.6 °F69 %30.01 in10.0 miCalmClear
3:15 AM23.0 °F17.6 °F80 %30.01 in10.0 miCalmClear
3:35 AM24.8 °F17.6 °F74 %30.00 in10.0 miCalmClear
3:55 AM24.8 °F17.6 °F74 %30.00 in10.0 miCalmClear
4:15 AM23.0 °F17.6 °F80 %29.99 in10.0 miCalmClear
4:35 AM21.2 °F15.8 °F80 %29.99 in10.0 miCalmClear
4:55 AM23.0 °F15.8 °F74 %29.99 in10.0 miCalmClear
5:15 AM23.0 °F15.8 °F74 %29.98 in10.0 miSW (220°)3.5 mphClear
5:35 AM21.2 °F15.8 °F80 %29.99 in10.0 miWNW (290°)3.5 mphClear
5:55 AM21.2 °F17.6 °F86 %30.01 in10.0 miNorth (10°)3.5 mphClear
6:15 AM23.0 °F17.6 °F80 %30.01 in10.0 miCalmClear
6:35 AM23.0 °F19.4 °F86 %30.01 in10.0 miCalmClear
6:55 AM24.8 °F19.4 °F80 %30.01 in10.0 miCalmClear
7:15 AM21.2 °F17.6 °F86 %30.03 in10.0 miCalmClear
7:35 AM19.4 °F15.8 °F86 %30.03 in10.0 miCalmClear
7:55 AM21.2 °F15.8 °F80 %30.04 in10.0 miCalmClear
8:15 AM21.2 °F17.6 °F86 %30.05 in10.0 miCalmClear
8:35 AM24.8 °F19.4 °F80 %30.05 in10.0 miCalmClear
8:55 AM28.4 °F21.2 °F74 %30.07 in10.0 miCalmClear
9:15 AM30.2 °F24.8 °F80 %30.07 in10.0 miCalmClear
9:35 AM33.8 °F26.6 °F75 %30.07 in10.0 miNorth (360°)3.5 mphClear
9:55 AM35.6 °F26.6 °F70 %30.09 in10.0 miNorth (10°)4.6 mphClear
10:15 AM37.4 °F26.6 °F65 %30.09 in10.0 miNorth (360°)4.6 mphClear
10:35 AM42.8 °F24.8 °F49 %30.09 in10.0 miCalmClear
10:55 AM46.4 °F23.0 °F40 %30.10 in10.0 miWNW (300°)8.1 mphClear
11:15 AM50.0 °F21.2 °F32 %30.10 in10.0 miNNW (330°)9.2 mphClear
11:35 AM50.0 °F23.0 °F35 %30.10 in10.0 miNNW (330°)8.1 mphClear
11:55 AM53.6 °F21.2 °F28 %30.10 in10.0 miNW (320°)12.7 mphClear
12:15 PM55.4 °F19.4 °F25 %30.09 in10.0 miNorth (350°)17.3 mphClear
12:35 PM55.4 °F17.6 °F23 %30.10 in10.0 miNNW (340°)12.7 mphClear
12:55 PM55.4 °F19.4 °F25 %30.09 in10.0 miNNW (340°)13.8 mph19.6 mphClear
1:15 PM53.6 °F19.4 °F26 %30.09 in10.0 miNorth (360°)11.5 mph20.7 mphClear
1:35 PM53.6 °F21.2 °F28 %30.10 in10.0 miNorth (360°)15.0 mphClear
1:55 PM53.6 °F21.2 °F28 %30.10 in10.0 miNNE (20°)15.0 mph20.7 mphClear
2:15 PM53.6 °F19.4 °F26 %30.11 in10.0 miNNE (20°)15.0 mph20.7 mphClear
2:35 PM53.6 °F19.4 °F26 %30.12 in10.0 miNE (40°)13.8 mph23.0 mphClear
2:55 PM51.8 °F21.2 °F30 %30.13 in10.0 miNE (40°)15.0 mph20.7 mphClear
3:15 PM51.8 °F21.2 °F30 %30.14 in10.0 miNE (50°)15.0 mph19.6 mphClear
3:35 PM51.8 °F21.2 °F30 %30.15 in10.0 miNNE (30°)12.7 mphClear
3:55 PM51.8 °F23.0 °F33 %30.16 in10.0 miNE (40°)16.1 mph20.7 mphClear
4:15 PM51.8 °F23.0 °F33 %30.16 in10.0 miNE (40°)15.0 mph21.9 mphClear
4:35 PM51.8 °F23.0 °F33 %30.18 in10.0 miNE (50°)16.1 mphClear
4:55 PM50.0 °F23.0 °F35 %30.20 in10.0 miNE (50°)13.8 mphClear
5:15 PM50.0 °F23.0 °F35 %30.21 in10.0 miENE (60°)11.5 mph18.4 mphClear
5:35 PM48.2 °F24.8 °F40 %30.21 in10.0 miNE (50°)11.5 mphClear
5:55 PM46.4 °F24.8 °F43 %30.23 in10.0 miNE (50°)11.5 mph17.3 mphClear
6:15 PM44.6 °F26.6 °F49 %30.23 in10.0 miNE (50°)9.2 mphClear
6:35 PM42.8 °F26.6 °F53 %30.24 in10.0 miENE (70°)8.1 mph18.4 mphClear
6:55 PM41.0 °F26.6 °F57 %30.26 in10.0 miENE (70°)6.9 mphClear
7:15 PM41.0 °F26.6 °F57 %30.28 in10.0 miENE (70°)9.2 mphClear
7:35 PM37.4 °F26.6 °F65 %30.28 in10.0 miEast (90°)8.1 mphClear
7:55 PM35.6 °F24.8 °F65 %30.28 in10.0 miEast (80°)9.2 mphClear
8:15 PM35.6 °F24.8 °F65 %30.29 in10.0 miEast (90°)9.2 mphClear
8:35 PM33.8 °F24.8 °F70 %30.28 in10.0 miEast (90°)11.5 mphClear
8:55 PM33.8 °F24.8 °F70 %30.29 in10.0 miEast (100°)12.7 mphClear
9:15 PM32.0 °F23.0 °F69 %30.28 in10.0 miEast (100°)12.7 mph17.3 mphClear
9:35 PM32.0 °F23.0 °F69 %30.29 in10.0 miEast (100°)9.2 mphClear
9:55 PM32.0 °F23.0 °F69 %30.29 in10.0 miEast (100°)9.2 mphClear
10:15 PM30.2 °F21.2 °F69 %30.30 in10.0 miESE (110°)6.9 mphClear
10:35 PM30.2 °F21.2 °F69 %30.30 in10.0 miESE (110°)9.2 mphClear
10:55 PM28.4 °F19.4 °F69 %30.30 in10.0 miESE (110°)10.4 mphClear
11:15 PM26.6 °F19.4 °F74 %30.30 in10.0 miEast (100°)10.4 mphClear
11:35 PM26.6 °F19.4 °F74 %30.31 in10.0 miESE (110°)11.5 mphClear
11:55 PM26.6 °F19.4 °F74 %30.33 in10.0 miSE (130°)4.6 mphClear
Hourly data recorded from KHHF, located miles away from Perryton East, Texas







STORIES FROM OUR PARTNERS